TimeEST,TemperatureF,Dew PointF,Humidity,Sea Level PressureIn,VisibilityMPH,Wind Direction,Wind SpeedMPH,Gust SpeedMPH,PrecipitationIn,Events,Conditions,WindDirDegrees,DateUTC
12:06 AM,69.8,64.4,83,30.10,8.0,NE,11.5,-,0.00,Rain,Light Rain,50,2012-11-15 05:06:00
12:26 AM,69.8,64.4,83,30.11,1.8,East,15.0,19.6,0.08,Rain,Heavy Rain,80,2012-11-15 05:26:00
12:53 AM,68.0,64.9,90,30.10,2.5,SE,8.1,-,0.37,Rain,Rain,140,2012-11-15 05:53:00
1:00 AM,68.0,64.4,88,30.10,6.0,SE,9.2,-,0.00,Rain,Light Rain,140,2012-11-15 06:00:00
1:53 AM,69.1,64.0,84,30.08,10.0,SSE,6.9,-,0.00,,Mostly Cloudy,150,2012-11-15 06:53:00
2:53 AM,68.0,63.0,84,30.06,10.0,Calm,Calm,-,N/A,,Clear,0,2012-11-15 07:53:00
3:53 AM,66.0,64.0,93,30.06,9.0,Calm,Calm,-,N/A,,Clear,0,2012-11-15 08:53:00
4:53 AM,64.9,63.0,93,30.06,9.0,NNW,3.5,-,N/A,,Clear,340,2012-11-15 09:53:00
5:53 AM,64.9,64.0,97,30.07,7.0,Calm,Calm,-,N/A,,Clear,0,2012-11-15 10:53:00
6:53 AM,64.0,63.0,96,30.08,4.0,Calm,Calm,-,N/A,,Clear,0,2012-11-15 11:53:00
7:53 AM,68.0,66.0,93,30.09,7.0,Calm,Calm,-,N/A,,Clear,0,2012-11-15 12:53:00
8:53 AM,73.9,66.0,76,30.10,9.0,North,8.1,-,N/A,,Clear,360,2012-11-15 13:53:00
9:53 AM,79.0,64.9,62,30.12,10.0,NNE,5.8,-,N/A,,Clear,20,2012-11-15 14:53:00
10:53 AM,80.1,60.1,50,30.11,10.0,Variable,3.5,-,N/A,,Clear,0,2012-11-15 15:53:00
11:53 AM,80.1,61.0,52,30.10,10.0,NE,9.2,-,N/A,,Scattered Clouds,50,2012-11-15 16:53:00
12:53 PM,81.0,61.0,50,30.07,10.0,Variable,3.5,-,N/A,,Scattered Clouds,0,2012-11-15 17:53:00
1:53 PM,78.1,61.0,56,30.06,10.0,ENE,6.9,-,N/A,,Mostly Cloudy,70,2012-11-15 18:53:00
2:53 PM,78.1,60.1,54,30.06,10.0,East,6.9,-,N/A,,Scattered Clouds,90,2012-11-15 19:53:00
3:53 PM,79.0,60.1,52,30.05,10.0,ENE,9.2,-,N/A,,Clear,60,2012-11-15 20:53:00
4:53 PM,77.0,61.0,58,30.06,10.0,East,9.2,-,N/A,,Partly Cloudy,80,2012-11-15 21:53:00
5:53 PM,75.0,62.1,64,30.06,10.0,ENE,4.6,-,N/A,,Mostly Cloudy,60,2012-11-15 22:53:00
6:53 PM,73.9,62.1,66,30.07,10.0,Calm,Calm,-,N/A,,Mostly Cloudy,0,2012-11-15 23:53:00
7:53 PM,73.9,64.0,71,30.09,10.0,NNE,6.9,-,N/A,,Overcast,20,2012-11-16 00:53:00
8:53 PM,72.0,64.9,78,30.10,10.0,North,3.5,-,0.01,,Overcast,360,2012-11-16 01:53:00
9:53 PM,71.1,66.0,84,30.10,9.0,North,8.1,-,N/A,,Partly Cloudy,360,2012-11-16 02:53:00
10:53 PM,69.1,64.9,87,30.10,8.0,North,9.2,-,N/A,,Scattered Clouds,350,2012-11-16 03:53:00
11:53 PM,69.1,64.9,87,30.09,7.0,NNW,5.8,-,N/A,,Mostly Cloudy,340,2012-11-16 04:53:00